Previsão horária em Allentaun

Hoje, 15 Janeiro, Sexta-feira

Tempo Temperatura Precipitação Vento Pressão Humidade
00:00 +2°C° 0 mm 1 m/s 750 mmHg 90%
01:00 +2°C° 0 mm 1 m/s 750 mmHg 87%
02:00 +2°C° 0 mm 1 m/s 750 mmHg 88%
03:00 +1°C° 0 mm 1 m/s 750 mmHg 89%
04:00 -1°C° 0 mm 2 m/s 751 mmHg 90%
05:00 -1°C° 0 mm 2 m/s 751 mmHg 90%
06:00 +1°C° 0 mm 2 m/s 751 mmHg 90%
07:00 +1°C° 0 mm 2 m/s 751 mmHg 90%
08:00 +1°C° 0 mm 3 m/s 751 mmHg 88%
09:00 0°C° 0 mm 4 m/s 751 mmHg 86%
10:00 +1°C° 0 mm 4 m/s 751 mmHg 83%
11:00 +2°C° 0 mm 5 m/s 751 mmHg 84%
12:00 +3°C° 0 mm 5 m/s 750 mmHg 84%
13:00 +4°C° 0 mm 6 m/s 749 mmHg 85%
14:00 +5°C° 0 mm 5 m/s 749 mmHg 84%
15:00 +6°C° 0 mm 5 m/s 749 mmHg 83%
16:00 +6°C° 0 mm 5 m/s 748 mmHg 81%
17:00 +6°C° 0.2 mm 5 m/s 748 mmHg 85%
18:00 +6°C° 0.2 mm 5 m/s 747 mmHg 88%
19:00 +6°C° 0.2 mm 5 m/s 747 mmHg 91%
20:00 +6°C° 2 mm 5 m/s 747 mmHg 93%
21:00 +7°C° 2 mm 5 m/s 746 mmHg 94%
22:00 +7°C° 2 mm 4 m/s 745 mmHg 96%
23:00 +7°C° 1.5 mm 3 m/s 745 mmHg 97%

Amanhã, 16 Janeiro, Sábado

Tempo Temperatura Precipitação Vento Pressão Humidade
00:00 +7°C° 1.5 mm 2 m/s 744 mmHg 97%
01:00 +8°C° 1.5 mm 1 m/s 743 mmHg 97%
02:00 +7°C° 1.6 mm 2 m/s 742 mmHg 97%
03:00 +7°C° 1.6 mm 2 m/s 741 mmHg 98%
04:00 +7°C° 1.6 mm 2 m/s 740 mmHg 98%
05:00 +7°C° 1.3 mm 3 m/s 739 mmHg 97%
06:00 +5°C° 1.3 mm 3 m/s 739 mmHg 95%
07:00 +5°C° 1.3 mm 4 m/s 739 mmHg 93%
08:00 +5°C° 0 mm 4 m/s 739 mmHg 90%
09:00 +5°C° 0 mm 4 m/s 739 mmHg 88%
10:00 +4°C° 0 mm 4 m/s 739 mmHg 85%
11:00 +4°C° 0 mm 4 m/s 738 mmHg 82%
12:00 +4°C° 0 mm 4 m/s 738 mmHg 80%
13:00 +3°C° 0 mm 5 m/s 738 mmHg 77%
14:00 +3°C° 0 mm 5 m/s 738 mmHg 76%
15:00 +2°C° 0 mm 5 m/s 738 mmHg 75%
16:00 +2°C° 0 mm 5 m/s 738 mmHg 74%
17:00 +1°C° 0 mm 4 m/s 739 mmHg 75%
18:00 +1°C° 0 mm 4 m/s 739 mmHg 77%
19:00 +1°C° 0 mm 3 m/s 739 mmHg 78%
20:00 0°C° 0 mm 4 m/s 739 mmHg 78%
21:00 0°C° 0 mm 4 m/s 740 mmHg 77%
22:00 0°C° 0 mm 5 m/s 740 mmHg 76%
23:00 -1°C° 0 mm 5 m/s 740 mmHg 78%

Depois de amanhã, 17 Janeiro, Domingo

Tempo Temperatura Precipitação Vento Pressão Humidade
00:00 -1°C° 0 mm 5 m/s 740 mmHg 80%
01:00 -1°C° 0 mm 5 m/s 740 mmHg 83%
02:00 -1°C° 0 mm 5 m/s 740 mmHg 81%
03:00 -2°C° 0 mm 5 m/s 740 mmHg 80%
04:00 -2°C° 0 mm 5 m/s 740 mmHg 79%
05:00 -2°C° 0 mm 5 m/s 741 mmHg 78%
06:00 -3°C° 0 mm 6 m/s 741 mmHg 76%
07:00 -3°C° 0 mm 6 m/s 742 mmHg 75%
08:00 -2°C° 0 mm 6 m/s 742 mmHg 72%
09:00 -1°C° 0 mm 7 m/s 742 mmHg 68%
10:00 0°C° 0 mm 8 m/s 743 mmHg 65%
11:00 +1°C° 0 mm 8 m/s 743 mmHg 63%
12:00 +3°C° 0 mm 7 m/s 743 mmHg 60%
13:00 +4°C° 0 mm 7 m/s 743 mmHg 58%
14:00 +3°C° 0 mm 6 m/s 743 mmHg 60%
15:00 +3°C° 0 mm 6 m/s 743 mmHg 62%
16:00 +3°C° 0 mm 5 m/s 743 mmHg 63%
17:00 +2°C° 0 mm 5 m/s 744 mmHg 66%
18:00 +1°C° 0 mm 4 m/s 744 mmHg 68%
19:00 +1°C° 0 mm 4 m/s 745 mmHg 71%
20:00 0°C° 0 mm 4 m/s 745 mmHg 72%
21:00 -1°C° 0 mm 4 m/s 745 mmHg 74%
22:00 0°C° 0 mm 3 m/s 745 mmHg 76%
23:00 -1°C° 0 mm 3 m/s 745 mmHg 78%

18 Janeiro, Segunda-feira

Tempo Temperatura Precipitação Vento Pressão Humidade
00:00 -1°C° 0 mm 3 m/s 745 mmHg 81%
01:00 -1°C° 0 mm 3 m/s 745 mmHg 83%
02:00 -1°C° 0 mm 3 m/s 745 mmHg 83%
03:00 -2°C° 0 mm 3 m/s 745 mmHg 83%
04:00 -2°C° 0 mm 3 m/s 745 mmHg 83%
05:00 -2°C° 0 mm 3 m/s 745 mmHg 83%
06:00 -2°C° 0 mm 3 m/s 745 mmHg 83%
07:00 -2°C° 0 mm 3 m/s 745 mmHg 83%
08:00 -2°C° 0 mm 4 m/s 745 mmHg 78%
09:00 -1°C° 0 mm 5 m/s 746 mmHg 73%
10:00 0°C° 0 mm 5 m/s 746 mmHg 67%
11:00 +1°C° 0 mm 6 m/s 746 mmHg 63%
12:00 +1°C° 0 mm 6 m/s 746 mmHg 58%
13:00 +2°C° 0 mm 6 m/s 746 mmHg 53%
14:00 +2°C° 0 mm 6 m/s 746 mmHg 55%
15:00 +1°C° 0 mm 6 m/s 746 mmHg 56%
16:00 +1°C° 0 mm 6 m/s 746 mmHg 57%
17:00 0°C° 0 mm 5 m/s 747 mmHg 61%
18:00 -1°C° 0 mm 5 m/s 748 mmHg 65%
19:00 -2°C° 0 mm 5 m/s 749 mmHg 70%
20:00 -2°C° 0 mm 5 m/s 750 mmHg 71%
21:00 -2°C° 0 mm 5 m/s 750 mmHg 72%
22:00 -2°C° 0 mm 5 m/s 751 mmHg 74%
23:00 -2°C° 0 mm 4 m/s 752 mmHg 75%

19 Janeiro, Terça-feira

Tempo Temperatura Precipitação Vento Pressão Humidade
00:00 -3°C° 0 mm 4 m/s 752 mmHg 76%
01:00 -3°C° 0 mm 4 m/s 753 mmHg 78%
02:00 -3°C° 0 mm 4 m/s 753 mmHg 77%
03:00 -3°C° 0 mm 4 m/s 753 mmHg 76%
04:00 -3°C° 0 mm 4 m/s 754 mmHg 75%
05:00 -3°C° 0 mm 4 m/s 754 mmHg 75%
06:00 -3°C° 0 mm 4 m/s 754 mmHg 74%
07:00 -4°C° 0 mm 4 m/s 755 mmHg 74%
08:00 -3°C° 0 mm 4 m/s 755 mmHg 69%
09:00 -2°C° 0 mm 5 m/s 755 mmHg 64%
10:00 -1°C° 0 mm 5 m/s 756 mmHg 59%
11:00 0°C° 0 mm 5 m/s 755 mmHg 58%
12:00 -1°C° 0 mm 6 m/s 755 mmHg 56%
13:00 +1°C° 0 mm 6 m/s 754 mmHg 54%
14:00 +1°C° 0 mm 5 m/s 754 mmHg 55%
15:00 +1°C° 0 mm 5 m/s 754 mmHg 57%
16:00 +1°C° 0 mm 4 m/s 753 mmHg 58%
17:00 +1°C° 0 mm 3 m/s 753 mmHg 62%
18:00 +1°C° 0 mm 2 m/s 753 mmHg 67%
19:00 -1°C° 0 mm 2 m/s 754 mmHg 71%
20:00 -1°C° 0 mm 2 m/s 753 mmHg 74%
21:00 -1°C° 0 mm 2 m/s 753 mmHg 77%
22:00 -1°C° 0 mm 2 m/s 752 mmHg 80%
23:00 -1°C° 0 mm 2 m/s 752 mmHg 83%

20 Janeiro, Quarta-feira

Tempo Temperatura Precipitação Vento Pressão Humidade
00:00 -1°C° 0 mm 2 m/s 751 mmHg 87%
01:00 -1°C° 0 mm 3 m/s 751 mmHg 90%
02:00 -2°C° 0.1 mm 3 m/s 751 mmHg 86%
03:00 -2°C° 0.1 mm 3 m/s 751 mmHg 81%
04:00 -3°C° 0.1 mm 4 m/s 751 mmHg 77%
05:00 -4°C° 0 mm 4 m/s 751 mmHg 74%
06:00 -4°C° 0 mm 4 m/s 751 mmHg 71%
07:00 -5°C° 0 mm 4 m/s 752 mmHg 68%
08:00 -5°C° 0 mm 5 m/s 752 mmHg 60%
09:00 -4°C° 0 mm 6 m/s 753 mmHg 53%
10:00 -5°C° 0 mm 8 m/s 753 mmHg 46%
11:00 -3°C° 0 mm 7 m/s 753 mmHg 44%
12:00 -3°C° 0 mm 7 m/s 754 mmHg 41%
13:00 -3°C° 0 mm 7 m/s 754 mmHg 39%
14:00 -4°C° 0 mm 6 m/s 754 mmHg 40%
15:00 -4°C° 0 mm 5 m/s 754 mmHg 42%
16:00 -5°C° 0 mm 5 m/s 754 mmHg 43%
17:00 -4°C° 0 mm 4 m/s 755 mmHg 47%
18:00 -5°C° 0 mm 3 m/s 755 mmHg 51%
19:00 -5°C° 0 mm 2 m/s 756 mmHg 55%
20:00 -5°C° 0 mm 2 m/s 756 mmHg 56%
21:00 -3°C° 0 mm 1 m/s 756 mmHg 57%
22:00 -3°C° 0 mm 1 m/s 756 mmHg 57%
23:00 -3°C° 0 mm 1 m/s 755 mmHg 58%
Mostrar mais

Necessitamos do seu Consentimento

A Meteoprog e os seus Fornecedores de Serviços podem armazenar e aceder a dados pessoais como cookies, identificadores do dispositivo ou outras tecnologias semelhantes existentes no seu dispositivo e processar estes dados para personalizar conteúdos e anúncios, assim como funcionalidades nas redes sociais e análise de tráfego.

  • Armazenar e/ou aceder a informações no seu dispositivo

    Os cookies, identificadores do dispositivo ou outras informações podem ser armazenados ou acedidos no seu dispositivo, para os fins acima indicados.

  • Anúncios e conteúdos personalizados, medição de anúncios e conteúdos, dados sobre o público-alvo e desenvolvimento de produtos

    Os anúncios e os conteúdos podem ser personalizados com base num perfil. Podem ser adicionados dados adicionais para uma maior personalização dos anúncios e dos conteúdos. A eficácia dos anúncios e dos conteúdos pode ser medida. Podem ser obtidas informações sobre o público que visualizou os anúncios e os conteúdos. Estes dados podem ser usados para desenvolver ou melhorar sistemas, softwares ou a experiência do utilizador.

Ao clicar em "Eu concordo”, permitirá o uso de cookies, identificadores do dispositivo e web beacons mencionados ou outras tecnologias semelhantes. As configurações do navegador do seu dispositivo podem ser alteradas.

Para certos fins, podem ser invocados interesses legítimos ao invés de consentimento. Pode ler mais informação sobre este assunto na nossa Política de Privacidade e Cookies.